EHI
0 0 0 0 0 0 0 0 0 0 0 0 0 0 0 0 0 0 0 0 0 1 3 6 7 7 6 5 4 4 4 3 1 1 1 0 0 0 0 0 0 1 0 0 0 0 1 1 1
0 0 0 0 0 0 0 0 0 0 0 0 0 0 0 0 0 0 0 0 0 1 3 5 7 8 7 6 4 3 3 2 1 1 1 0 0 0 0 0 1 1 0 0 0 0 1 1 1
0 0 0 0 0 0 0 0 0 0 0 0 0 0 0 0 0 0 0 0 0 1 2 5 7 9 8 7 5 3 1 1 1 1 1 1 0 0 0 0 1 1 0 0 0 0 0 0 0
0 0 0 0 0 0 0 0 0 0 0 0 0 0 0 0 0 0 0 0 0 1 2 5 8 9 9 7 4 2 0 0 0 1 1 1 0 0 0 0 0 0 0 0 0 0 0 0 0
0 0 0 0 0 0 0 0 0 0 0 0 0 0 0 0 0 0 1 2 1 1 2 4 7 8 8 6 4 2 1 1 1 1 1 0 0 0 0 0 0 0 0 0 0 0 0 0 0
0 0 0 0 0 0 0 0 0 0 0 0 0 0 0 0 0 1 2 3 2 1 2 4 5 5 6 5 4 3 3 2 3 3 1 0 1 1 0 0 0 0 0 0 0 0 0 0 0
0 0 0 0 0 0 0 0 0 0 0 0 0 0 0 0 0 1 2 2 1 1 2 3 2 2 2 3 3 3 3 3 3 3 2 1 1 1 0 0 0 0 0 0 0 0 0 0 0
0 0 0 0 0 0 0 0 0 0 0 0 0 0 0 0 0 0 1 1 0 0 1 1 1 0 0 1 1 2 2 2 1 1 1 0 1 1 0 0 0 0 0 0 0 0 0 0 0
0 0 0 0 0 0 0 0 0 0 0 0 0 0 0 0 0 1 2 2 1 0 0 0 0 0 0 0 0 1 1 1 0 0 0 0 0 0 0 0 0 0 0 0 0 0 0 0 0
0 0 0 0 0 0 0 0 0 0 0 0 0 0 0 0 0 1 2 2 1 0 0 0 0 0 0 0 1 1 1 1 0 0 0 0 0 0 0 0 0 0 0 0 0 0 0 0 0
0 0 0 0 0 0 0 0 0 0 0 0 0 0 0 0 0 0 1 1 0 0 0 0 0 0 1 1 2 3 4 3 1 1 1 2 1 0 0 0 0 0 0 0 0 0 0 0 0
0 0 0 0 0 0 0 0 0 0 0 0 0 0 0 0 0 0 0 0 0 0 0 0 0 0 1 2 2 3 5 5 3 2 2 3 2 1 0 0 0 0 0 0 0 0 0 0 0
0 0 0 0 0 0 0 0 0 0 0 0 0 0 0 0 0 0 0 0 0 0 0 0 0 0 0 1 1 1 3 4 3 2 2 2 2 1 0 0 0 0 0 0 0 0 0 0 0
0 0 0 0 0 0 0 0 0 0 0 0 0 0 0 0 0 0 0 0 0 0 0 0 0 0 0 0 0 0 1 2 2 1 1 1 1 0 0 0 0 0 0 0 0 0 0 0 0
0 0 0 0 0 0 0 0 0 0 0 0 0 0 0 0 0 0 0 0 0 0 0 0 0 0 0 0 0 0 0 0 0 0 0 0 0 0 0 0 0 0 0 0 0 0 0 0 0
0 0 0 0 0 0 0 0 0 0 0 0 0 0 0 0 0 0 0 0 0 0 0 0 0 0 0 0 0 0 0 0 0 0 0 0 0 0 0 0 0 0 0 0 0 0 0 0 0
0 0 0 0 0 0 0 0 0 0 0 0 0 0 0 0 0 0 0 0 0 0 0 0 0 0 0 0 0 0 0 0 0 0 0 0 0 0 0 0 0 0 0 0 0 0 0 0 0
0 0 0 0 0 0 0 0 0 0 0 0 0 0 0 0 0 0 0 0 0 0 0 0 0 0 0 0 0 0 0 0 0 0 0 0 0 0 0 0 0 0 0 0 0 0 0 0 0
0 0 0 0 0 0 0 0 0 0 0 0 0 0 0 0 0 0 0 0 0 0 0 0 0 0 0 0 0 0 0 0 0 0 0 0 0 0 0 0 0 0 0 0 0 0 0 0 0
0 0 0 0 0 0 0 0 0 0 0 0 0 0 0 0 0 0 0 0 0 0 0 0 0 0 0 0 0 0 0 0 0 0 0 0 0 0 0 0 0 0 0 0 0 0 0 0 0
0 0 0 0 0 0 0 0 0 0 0 0 0 0 0 0 0 0 0 0 0 0 0 0 0 0 0 0 0 0 0 0 0 0 0 0 0 0 0 0 0 0 0 0 0 0 0 0 0
0 0 0 0 0 0 0 0 0 0 0 0 0 0 0 0 0 0 0 0 0 0 0 0 0 0 0 0 0 0 0 0 0 0 0 0 0 0 0 0 0 0 0 0 0 0 0 0 0
0 0 0 0 0 0 0 0 0 0 0 0 0 0 0 0 0 0 0 0 0 0 0 0 0 0 0 0 0 0 0 0 0 0 0 0 0 0 0 0 0 0 0 0 0 0 0 0 0
0 0 0 0 0 0 0 0 0 0 0 0 0 0 0 0 0 0 0 0 0 0 0 0 0 0 0 0 0 0 0 0 0 0 0 0 0 0 0 0 0 0 0 0 0 0 0 0 0
0 0 0 0 0 0 0 0 0 0 0 0 0 0 0 0 0 0 0 0 0 0 0 0 0 0 0 0 0 0 0 0 0 0 0 0 0 0 0 0 0 0 0 0 0 0 0 0 0
0 0 0 0 0 0 0 0 0 0 0 0 0 0 0 0 0 0 0 0 0 0 0 0 0 0 0 0 0 0 0 0 0 0 0 0 0 0 0 0 0 0 0 0 0 0 0 0 0
0 0 0 0 0 0 0 0 0 0 0 0 0 0 0 0 0 0 0 0 0 0 0 0 0 0 0 0 0 0 0 0 0 0 0 0 0 0 0 0 0 0 0 0 0 0 0 0 0
0 0 0 0 0 0 0 0 0 0 0 0 0 0 0 0 0 0 0 0 0 0 0 0 0 0 0 0 0 0 0 0 0 0 0 0 0 0 0 0 0 0 0 0 0 0 0 0 0
0 0 0 0 0 0 0 0 0 0 0 0 0 0 0 0 0 0 0 0 0 0 0 0 0 0 0 0 0 0 0 0 0 0 0 0 0 0 0 0 0 0 0 0 0 0 0 0 0
0 0 0 0 0 0 0 0 0 0 0 0 0 0 0 0 0 0 0 0 0 0 0 0 0 0 0 0 0 0 0 0 0 0 0 0 0 0 0 0 0 0 0 0 0 0 0 0 0
Wind_Speed
3 2 2 3 5 5 8 6 4 5 4 2 2 2 2 1 0 3 4 2 2 3 3 3 4 7 8 9 9 9 9 9 9 9 9 10 10 11 11 11 11 10 10 11 11 12 12 12 12
1 1 3 3 6 8 7 6 7 5 3 5 3 2 2 2 3 3 3 2 2 4 4 3 6 8 9 9 9 9 9 9 10 9 9 9 10 10 11 11 11 11 10 11 11 11 12 12 12
1 1 3 4 7 9 6 5 5 4 4 4 4 1 0 2 2 2 3 2 3 4 3 4 7 8 9 9 9 9 9 9 10 10 10 10 10 10 10 11 11 10 10 10 10 11 11 11 11
3 3 3 6 10 8 5 3 4 7 5 3 3 4 2 3 2 2 3 4 5 5 4 5 7 8 9 9 9 9 9 9 10 10 11 11 10 10 10 10 11 10 10 10 10 10 10 10 11
2 3 5 7 9 6 3 2 4 6 5 4 4 3 3 3 3 3 3 5 5 5 4 5 7 8 9 9 9 8 9 9 9 10 10 10 10 11 11 10 10 10 10 10 10 10 9 10 10
3 4 7 10 10 6 4 4 5 5 4 3 4 4 3 3 3 2 3 5 5 5 4 5 7 8 8 9 9 8 8 9 9 10 10 10 10 11 11 10 10 10 9 9 9 9 9 9 9
4 5 7 8 8 7 4 4 5 5 5 3 2 3 4 3 2 2 4 5 5 5 4 4 5 6 8 9 9 9 9 9 9 9 9 9 10 10 10 9 9 9 9 9 9 9 8 8 8
2 3 6 8 8 6 4 4 2 4 3 1 1 3 3 3 3 4 5 5 5 4 4 4 4 5 5 6 9 9 9 9 9 10 10 10 9 9 9 8 8 9 9 9 9 9 8 8 8
3 6 8 8 7 4 4 4 2 0 2 2 1 2 3 5 5 6 5 4 4 3 3 3 4 4 4 5 6 7 8 9 8 8 9 7 5 6 6 8 8 9 9 8 8 8 8 6 7
4 7 8 3 3 2 4 3 3 4 3 3 3 2 4 5 6 6 5 4 3 2 2 2 3 3 4 3 4 3 4 5 4 4 5 3 4 4 5 8 9 9 9 8 8 7 5 2 3
3 5 3 3 2 2 3 2 2 4 4 4 4 3 4 5 5 5 5 4 3 2 2 2 2 3 3 3 3 2 2 3 3 4 4 3 3 3 3 3 4 5 4 4 4 3 2 2 2
3 2 2 2 1 1 2 2 2 3 3 2 1 4 5 5 5 5 4 3 3 3 2 2 2 2 2 3 3 3 2 2 3 3 3 3 2 2 2 2 2 2 2 2 2 1 2 3 2
5 2 1 1 1 1 1 2 2 3 2 1 3 4 5 5 4 4 3 3 3 3 2 2 2 2 2 2 2 2 2 2 3 3 2 2 2 2 2 2 2 2 1 1 1 1 2 2 2
3 3 2 2 3 3 3 3 3 3 1 2 3 3 3 3 3 2 2 2 2 2 2 2 2 2 2 2 2 2 2 2 2 2 2 2 2 2 2 2 2 1 1 1 1 1 1 1 1
3 3 4 3 3 3 3 5 6 3 3 3 3 3 3 2 1 1 2 1 1 1 1 1 2 2 2 2 3 2 2 2 2 2 2 2 2 2 2 1 1 1 1 1 1 1 1 1 1
3 5 6 3 3 3 6 9 3 3 4 3 2 2 2 1 1 1 1 1 0 1 1 1 1 2 2 2 2 2 2 2 2 2 1 2 2 2 1 1 1 1 0 1 1 1 1 1 1
5 6 7 4 3 3 7 7 2 3 4 4 3 2 1 1 0 1 1 0 0 1 1 1 1 1 1 2 2 2 2 2 2 1 1 1 2 1 1 1 1 1 0 1 1 1 1 1 1
6 7 6 6 2 4 7 8 4 3 5 5 3 2 2 1 1 1 1 0 0 1 1 1 2 1 1 1 2 2 2 2 1 1 1 1 1 1 1 1 1 0 0 1 1 1 1 1 1
4 6 8 5 1 5 8 9 7 4 4 3 3 2 2 1 1 1 1 1 1 1 1 1 1 1 1 1 1 1 1 1 1 1 1 1 1 0 0 1 1 0 0 1 1 2 2 1 1
6 7 7 4 1 4 6 9 6 4 4 3 3 2 2 1 0 1 1 1 1 1 1 1 1 1 1 0 0 0 1 1 1 1 1 0 1 0 1 1 1 1 1 1 1 2 1 1 1
7 8 7 4 2 3 5 8 6 4 3 2 2 2 1 1 1 0 0 1 0 1 1 1 1 1 0 0 1 1 1 1 1 1 0 0 1 1 0 1 1 1 1 2 2 2 3 2 2
6 5 6 5 5 4 3 7 5 4 4 4 3 2 2 1 1 1 1 1 1 1 1 1 1 1 0 0 1 1 1 1 1 1 1 1 1 0 1 1 1 1 2 2 2 3 3 3 3
3 2 4 5 5 5 5 7 5 3 5 6 5 4 3 2 1 1 1 1 1 1 1 1 1 1 1 1 1 1 1 1 0 1 1 1 1 1 1 1 1 1 2 2 3 3 3 3 3
1 1 1 3 4 7 6 7 6 4 5 4 4 4 3 2 1 1 1 1 1 1 1 1 1 1 1 1 1 1 2 1 1 1 1 1 1 1 1 1 2 2 2 2 2 3 4 4 4
3 3 3 4 5 6 4 7 7 2 2 2 2 3 3 2 1 1 1 1 1 1 1 1 1 1 1 1 2 2 2 2 2 2 2 2 1 1 2 2 2 2 2 3 3 3 4 5 5
4 5 4 5 5 3 4 8 4 1 1 0 1 2 2 2 1 1 1 1 1 1 1 1 1 1 1 2 2 2 2 2 2 2 2 3 2 2 3 3 3 3 3 3 3 3 4 4 4
3 4 2 2 2 5 6 5 5 3 3 2 2 2 2 2 2 2 1 1 1 1 2 2 2 2 2 2 2 2 2 2 3 3 3 2 2 2 3 3 3 3 3 3 4 4 4 4 4
2 2 3 4 4 6 5 6 5 4 4 4 3 3 3 2 2 2 1 1 1 2 2 2 2 2 2 2 2 2 2 3 3 3 3 3 3 3 3 3 3 4 4 4 4 4 4 4 4
3 4 4 3 4 5 6 4 0 3 3 4 3 3 2 2 2 2 1 1 1 2 2 2 2 2 2 2 2 3 3 3 3 3 3 3 3 3 3 3 4 4 4 4 4 5 5 6 6
3 4 5 5 5 4 5 5 2 1 1 2 2 2 2 2 2 1 1 1 1 2 2 2 2 2 2 3 3 3 3 3 3 3 3 3 3 4 4 4 4 4 4 4 5 6 6 6 7
Wind_Direction
330 312 235 215 207 216 225 207 198 175 178 158 135 168 178 160 338 70 65 100 103 136 139 125 80 91 88 85 84 83 82 82 86 89 89 89 88 86 86 85 85 88 93 95 92 91 90 87 85
311 245 207 214 225 217 214 207 200 191 144 141 146 174 164 136 38 68 99 100 127 131 130 122 87 93 91 87 85 83 82 82 83 86 89 88 87 86 85 81 79 81 87 94 93 91 90 88 87
199 241 211 203 224 227 208 185 191 157 143 168 153 140 139 86 92 94 72 129 137 125 121 106 89 93 94 91 88 86 83 83 82 82 84 85 85 84 83 81 78 78 80 88 92 92 91 90 89
198 177 205 224 220 227 234 179 157 162 166 184 168 140 119 46 44 63 109 140 131 120 113 104 89 92 92 91 89 88 86 84 83 83 82 82 83 84 81 80 79 78 80 82 90 94 92 90 90
209 196 201 218 227 222 230 219 179 184 172 170 188 163 130 89 55 85 131 135 130 120 110 105 89 92 92 92 89 88 88 87 85 83 82 83 82 81 79 77 78 77 79 82 86 93 95 92 91
185 207 215 219 219 212 213 208 197 202 181 164 182 174 132 94 86 104 126 128 125 119 114 108 90 88 89 86 84 85 87 88 86 85 82 80 80 79 77 78 78 76 78 81 83 86 91 93 92
210 211 227 224 221 219 206 193 212 205 197 188 211 177 145 131 81 116 125 122 118 116 111 104 108 97 84 79 76 77 78 77 78 82 80 76 73 74 73 73 74 72 71 73 74 77 82 85 88
242 215 224 225 223 220 180 178 214 231 199 96 239 193 148 129 123 129 121 115 109 99 96 100 103 106 104 92 76 72 70 71 72 71 71 71 70 70 69 70 69 70 68 68 71 68 69 78 84
219 223 225 220 222 205 164 177 145 81 144 136 83 26 61 118 139 132 121 109 103 92 86 92 97 98 102 101 91 83 75 67 69 72 71 74 87 88 78 66 61 64 62 63 67 68 66 71 84
211 226 231 231 233 194 171 191 161 171 178 180 161 105 108 132 144 144 142 141 131 111 83 82 97 94 98 100 105 100 92 85 78 82 87 84 80 72 70 62 58 57 56 60 59 59 68 71 103
209 231 225 219 212 201 187 192 195 199 213 221 208 171 143 149 155 162 163 158 152 140 108 69 76 95 102 102 99 92 90 91 85 78 79 83 84 84 78 76 71 71 65 68 66 67 68 63 82
193 241 247 230 201 211 202 177 189 244 261 353 190 151 156 168 177 182 178 167 154 142 123 93 78 86 105 103 99 101 96 96 89 79 80 88 86 83 80 78 71 73 71 67 63 58 71 69 73
210 207 218 217 158 187 180 204 222 248 265 67 133 150 170 180 192 188 181 167 159 153 145 122 104 97 97 106 98 96 96 94 92 81 72 82 94 94 88 81 72 60 69 77 82 92 90 86 68
194 190 202 241 222 226 207 235 230 239 203 161 153 160 169 178 186 177 172 175 175 165 158 149 134 114 107 108 110 104 101 98 93 87 74 74 86 99 97 89 73 54 59 63 98 101 98 88 73
178 196 217 227 224 211 213 238 226 224 188 173 167 165 160 169 165 191 204 201 190 178 157 151 140 127 126 124 124 113 110 112 101 93 86 75 78 104 107 94 82 54 49 88 102 107 101 92 88
196 214 223 198 212 206 226 243 196 179 191 202 197 184 173 165 177 226 244 231 192 159 146 141 115 128 122 110 130 124 119 115 105 102 96 80 75 88 108 111 97 68 73 112 120 141 128 121 122
201 228 235 218 202 212 227 250 225 210 212 222 218 203 200 199 320 314 285 239 183 159 133 119 108 104 101 109 120 126 124 116 106 103 100 92 80 76 83 87 82 117 123 119 131 163 154 145 131
218 231 235 234 210 229 234 248 250 238 232 234 222 204 203 236 303 332 326 238 149 126 120 107 101 88 87 111 118 121 122 116 114 121 116 116 97 82 79 89 80 94 148 146 165 153 129 145 152
242 237 246 252 250 240 242 255 254 249 231 218 211 214 215 231 302 22 57 81 111 109 118 109 90 70 85 114 133 162 154 137 138 136 129 132 122 116 103 88 119 126 188 184 171 156 148 129 161
233 241 252 260 250 250 262 265 255 228 216 208 214 220 229 230 269 57 71 93 125 144 154 148 141 128 107 41 78 272 164 149 139 119 113 112 149 190 231 164 187 196 207 185 182 175 172 148 213
238 243 250 252 284 235 277 260 217 196 193 205 225 236 232 227 233 194 137 138 143 179 200 198 182 168 152 46 79 115 115 106 126 160 187 206 199 184 240 244 223 214 209 209 210 206 201 191 208
245 250 250 243 247 252 256 271 228 210 208 217 225 223 226 239 251 236 206 218 226 236 231 214 187 174 157 149 115 170 183 210 226 211 216 215 222 223 260 242 236 242 236 224 223 223 222 215 209
245 279 246 238 235 254 229 250 248 182 227 229 227 226 226 224 238 261 266 259 268 282 266 227 195 180 182 188 188 236 246 257 228 186 201 209 233 231 253 253 232 230 246 246 237 228 224 225 228
188 197 190 206 221 239 219 231 254 205 224 225 213 213 217 224 242 286 329 341 348 355 326 272 213 204 202 210 222 248 259 241 213 225 234 227 245 247 247 249 243 235 237 247 249 240 230 229 231
191 208 221 213 216 235 177 227 251 236 224 240 223 208 205 207 226 280 327 331 346 359 353 327 288 267 264 248 239 249 260 249 236 238 239 249 241 254 253 247 243 241 241 245 248 243 240 230 226
206 224 238 251 247 245 193 235 246 150 130 245 238 214 197 206 232 259 283 303 311 328 334 322 304 299 293 276 270 261 263 260 262 265 257 244 251 254 258 248 247 248 242 238 237 239 240 236 228
198 217 284 269 279 264 241 249 262 199 192 190 193 196 217 241 265 269 266 299 311 312 322 315 296 296 312 316 320 297 279 270 269 268 262 256 254 257 252 249 246 248 242 237 235 236 233 232 232
290 173 183 212 239 252 245 237 233 201 205 199 212 225 235 261 275 279 276 295 313 317 316 309 302 306 310 312 312 299 290 290 283 264 262 266 262 254 249 248 248 249 246 237 232 236 233 229 231
184 191 216 219 257 256 258 249 188 207 195 205 222 230 238 256 261 265 273 298 327 340 333 316 308 308 310 307 298 293 293 291 286 278 272 272 272 260 252 251 251 249 249 244 238 238 236 231 231
246 223 202 220 224 239 265 270 80 196 217 227 235 237 254 261 257 250 267 292 322 331 337 325 310 303 303 302 297 292 294 290 285 287 289 286 279 272 262 257 253 252 251 249 245 244 240 237 235